Location: Casilda
(33.0440°S, 61.1680°W)
Time: 18:16:49
(UTC-03:00)

ISS - Pass Details

Date: 22 January 2022
Orbit: 413 x 422 km, 51.6° (Epoch: 19 January)

Event Time Altitude Azimuth Distance (km) Brightness Sun altitude
Exits shadow 05:38:28 11° 310° (NW) 1,474 -1.6 -8.2°
Maximum altitude 05:41:47 78° 223° (SW) 444 -3.7 -7.6°
Drops below altitude 10° 05:45:14 10° 137° (SE) 1,534 0.5 -7.0°
Sets 05:47:21 0° 135° (SE) 2,406 1.9 -6.6°
